Αρχική σελίδα
METAR-TAF:

METAR-TAF

Αεροδρόμια :

Shingle Point, Γιουκόν, Καναδάς

γεωγραφικό πλάτος: 68-57N, γεωγραφικό μήκος: 137-13W, υψόμετρο: 56 μ

Παρών καιρός

Η αναφορά έγινε 20 λεπτά πριν, στις 06:00 UTC
Ήπιος άνεμος
Θερμοκρασία 2°C
Υγρασία 93%
Πίεση 1017 hPa
Νεφοσκεπής σε ύψος 400 πόδια

METAR: CYUA 150600Z AUTO 00000KT ////SM OVC004 02/01 A3004

Χρόνος: 23:20 (06:20 UTC)


TAF: λείπει

Μετεωρολογικές αναφορές και προγνώσεις για περισσότερα από 4000 αεροδρόμια (δελτία METAR και TAF).

Οι διαθέσιμοι σταθμοί απεικονίζονται στο χάρτη με κίτρινες και κόκκινες κουκκίδες.

Μετακινήστε το ποντίκι πάνω από τις κουκκίδες για να δείτε το όνομα του σταθμού.

Στη συνέχεια, κάντε κλικ για να δείτε τις μετεωρολογικές αναφορές και τις προγνώσεις καιρού.

Για να αλλάξετε το χάρτη: κάντε κλικ στα πράσινα κουμπιά με τον μαύρο σταυρό για να ζουμάρετε, στο πράσινο κουμπί με την παύλα για να αφαιρέσετε το ζουμ ή στα πράσινα βέλη για να αντιπαραβάλλετε χάρτες.


METAR-TAF: